ALCOMSAT 1 (43039 NORAD) Tracking and Keplerian Element Data

This shows tracking and keplerian element data for the satellite.

Feedback or suggestion? Click here.




ElementValue
Catalog43039
NameALCOMSAT 1
Epoch Orbit2385
Epoch Day157.0935476
Epoch Year2024
RAAN116.9753
Inclination0.0783
Eccentricity0.0001441
Argument of Perigee317.6231
Mean Anonmoly188.3083
Mean Motion1.00271205
Decay Rate-1.82E-06
L11 43039U 17078A 24157.09354760 -.00000182 00000+0 00000+0 0 9995
L22 43039 0.0783 116.9753 0001441 317.6231 188.3083 1.00271205 23851



Live tracking and technical data element details for ALCOMSAT 1 (NORAD 43039). ALCOMSAT 1 can be tracked NOW for your location showing map with azimuth and elevation plus other details from your city location.







IsCatalogInMostPopularTable: catalog: 43039, numindb: 697
Update: records affected: 1



GetName: 43039 ALCOMSAT 1

Hit Count: updated at: Mon, 17 Jun 2024 23:27:56 GMT